Date String (YYYY-MM-DD hh:mm:ss) UTC,Instrument flags,Ambient pressure (hPa),Sample flow (lpm),Bypass flow (lpm),Sample temperature (°C),Ambient temperature (°C),ASC tube jacket temperature (°C),LED temperature (°C),Box temperature (°C),Sample RH (%),Span deviation,Mass concentration (μg/m³),Mass concentration (μg/m³),Mass concentration (μg/m³)
DateTimeUTC,F1_M11,P_M11,Q1_M11,Q2_M11,T1_M11,T2_M11,T3_M11,T4_M11,T5_M11,U1_M11,ZSPAN_M11,X2_M11,X0_M11,X1_M11
2023-01-22 21:00:00,,0818.8,5.01,0.00,25.7,24.5,00.0,34.4,27.6,09.0,0000.0,0004.62,0007.77,0004.37
2023-01-22 21:01:00,,0818.7,5.00,0.00,25.7,24.5,00.0,34.5,27.6,08.8,0000.0,0004.62,0007.77,0004.38
2023-01-22 21:02:00,,0818.8,5.00,0.00,25.7,24.5,00.0,34.5,27.6,08.9,0000.0,0004.65,0007.87,0004.41
2023-01-22 21:03:00,,0818.8,5.00,0.00,25.8,24.5,00.0,34.5,27.6,09.0,0000.0,0004.71,0008.34,0004.46
2023-01-22 21:04:00,,0818.8,5.00,0.00,25.8,24.5,00.0,34.5,27.6,09.1,0000.0,0004.78,0008.54,0004.53
2023-01-22 21:05:00,,0818.9,5.00,0.00,25.8,24.5,00.0,34.5,27.6,08.9,0000.0,0004.85,0008.45,0004.58
2023-01-22 21:06:00,,0818.9,5.01,0.00,25.8,24.5,00.0,34.5,27.6,08.7,0000.0,0004.84,0008.32,0004.57
2023-01-22 21:07:00,,0818.9,4.99,0.00,25.7,24.4,00.0,34.5,27.6,08.9,0000.0,0004.86,0008.46,0004.57
2023-01-22 21:08:00,,0818.9,4.99,0.00,25.7,24.4,00.0,34.5,27.6,08.9,0000.0,0004.90,0008.54,0004.58
2023-01-22 21:09:00,,0818.9,5.01,0.00,25.7,24.4,00.0,34.5,27.6,09.0,0000.0,0004.92,0008.54,0004.59
2023-01-22 21:10:00,,0818.9,5.01,0.00,25.7,24.5,00.0,34.5,27.6,09.2,0000.0,0004.97,0008.61,0004.62
2023-01-22 21:11:00,,0818.9,5.00,0.00,25.7,24.5,00.0,34.5,27.6,09.2,0000.0,0005.05,0008.91,0004.67
2023-01-22 21:12:00,,0818.9,5.00,0.00,25.8,24.5,00.0,34.5,27.6,09.3,0000.0,0005.16,0009.81,0004.72
2023-01-22 21:13:00,,0818.9,5.02,0.00,25.8,24.5,00.0,34.5,27.6,09.4,0000.0,0005.23,0009.94,0004.79
2023-01-22 21:14:00,,0818.9,5.01,0.00,25.8,24.5,00.0,34.5,27.6,09.4,0000.0,0005.30,0010.07,0004.82
2023-01-22 21:15:00,,0819.0,5.01,0.00,25.8,24.5,00.0,34.5,27.6,09.3,0000.0,0005.38,0010.21,0004.87
2023-01-22 21:16:00,,0819.0,5.01,0.00,25.8,24.5,00.0,34.5,27.6,09.6,0000.0,0005.44,0010.33,0004.92
2023-01-22 21:17:00,,0818.9,5.03,0.00,25.8,24.5,00.0,34.5,27.7,09.6,0000.0,0005.57,0010.72,0005.01
2023-01-22 21:18:00,,0819.0,5.00,0.00,25.8,24.5,00.0,34.5,27.7,09.6,0000.0,0005.65,0010.73,0005.11
2023-01-22 21:19:00,,0818.9,5.01,0.00,25.8,24.5,00.0,34.5,27.7,09.6,0000.0,0005.76,0010.92,0005.19
2023-01-22 21:20:00,,0819.0,5.00,0.00,25.8,24.6,00.0,34.5,27.7,09.5,0000.0,0005.88,0011.28,0005.28
2023-01-22 21:21:00,,0818.9,5.00,0.00,25.8,24.6,00.0,34.5,27.7,09.6,0000.0,0006.00,0011.91,0005.36
2023-01-22 21:22:00,,0818.9,5.01,0.00,25.8,24.6,00.0,34.6,27.7,09.6,0000.0,0006.11,0012.56,0005.44
2023-01-22 21:23:00,,0818.9,5.00,0.00,25.8,24.6,00.0,34.6,27.7,09.4,0000.0,0006.12,0011.91,0005.48
2023-01-22 21:24:00,,0818.9,4.98,0.00,25.8,24.6,00.0,34.6,27.7,09.4,0000.0,0006.18,0011.91,0005.51
2023-01-22 21:25:00,,0818.9,5.01,0.00,25.8,24.5,00.0,34.6,27.7,09.4,0000.0,0006.19,0011.98,0005.55
2023-01-22 21:26:00,,0818.9,5.01,0.00,25.8,24.5,00.0,34.6,27.7,09.3,0000.0,0006.20,0011.69,0005.58
2023-01-22 21:27:00,,0819.0,5.00,0.00,25.8,24.6,00.0,34.6,27.7,09.2,0000.0,0006.23,0011.72,0005.60
2023-01-22 21:28:00,,0819.0,4.99,0.00,25.8,24.6,00.0,34.6,27.7,09.1,0000.0,0006.27,0011.56,0005.65
2023-01-22 21:29:00,,0819.0,5.00,0.00,25.8,24.6,00.0,34.6,27.7,09.1,0000.0,0006.30,0011.90,0005.67
2023-01-22 21:30:00,,0819.0,4.99,0.00,25.8,24.6,00.0,34.6,27.7,09.1,0000.0,0006.29,0013.95,0005.68
2023-01-22 21:31:00,,0819.0,4.99,0.00,25.8,24.5,00.0,34.6,27.7,09.2,0000.0,0006.28,0014.20,0005.71
2023-01-22 21:32:00,,0819.0,5.00,0.00,25.8,24.5,00.0,34.6,27.7,09.3,0000.0,0006.27,0013.86,0005.73
2023-01-22 21:33:00,,0819.0,5.00,0.00,25.8,24.5,00.0,34.6,27.7,09.3,0000.0,0006.23,0012.96,0005.75
2023-01-22 21:34:00,,0819.0,4.99,0.00,25.8,24.5,00.0,34.6,27.7,09.3,0000.0,0006.28,0013.06,0005.79
2023-01-22 21:35:00,,0819.0,4.99,0.00,25.8,24.5,00.0,34.6,27.7,09.4,0000.0,0006.32,0013.15,0005.84
2023-01-22 21:36:00,,0819.0,5.00,0.00,25.8,24.5,00.0,34.6,27.7,09.2,0000.0,0006.35,0012.86,0005.88
2023-01-22 21:37:00,,0819.1,4.97,0.00,25.8,24.5,00.0,34.6,27.7,09.2,0000.0,0006.39,0012.91,0005.93
2023-01-22 21:38:00,,0819.1,5.00,0.00,25.8,24.5,00.0,34.6,27.6,09.2,0000.0,0006.46,0013.10,0005.99
2023-01-22 21:39:00,,0819.1,5.01,0.00,25.8,24.5,00.0,34.6,27.6,09.3,0000.0,0006.51,0013.44,0006.02
2023-01-22 21:40:00,,0819.1,5.00,0.00,25.8,24.5,00.0,34.6,27.7,09.3,0000.0,0006.56,0013.53,0006.06
2023-01-22 21:41:00,,0819.1,5.00,0.00,25.8,24.6,00.0,34.6,27.7,09.4,0000.0,0006.59,0011.56,0006.09
2023-01-22 21:42:00,,0819.1,5.01,0.00,25.9,24.6,00.0,34.6,27.7,09.4,0000.0,0006.63,0011.30,0006.12
2023-01-22 21:43:00,,0819.2,4.99,0.00,25.9,24.6,00.0,34.6,27.7,09.5,0000.8,0006.65,0011.35,0006.13
2023-01-22 21:44:00,,0819.1,5.00,0.00,25.9,24.6,00.0,34.6,27.7,09.6,0000.0,0006.70,0011.45,0006.14
2023-01-22 21:45:00,,0819.1,5.00,0.00,25.9,24.6,00.0,34.6,27.7,09.6,0000.3,0006.67,0011.53,0006.13
2023-01-22 21:46:00,,0819.1,5.00,0.00,25.9,24.7,00.0,34.6,27.8,09.5,0000.0,0006.68,0011.48,0006.12
2023-01-22 21:47:00,,0819.1,4.99,0.00,25.9,24.7,00.0,34.6,27.8,09.6,0000.0,0006.67,0011.60,0006.11
2023-01-22 21:48:00,,0819.2,5.00,0.00,26.0,24.7,00.0,34.6,27.8,09.5,0000.0,0006.65,0011.73,0006.08
2023-01-22 21:49:00,,0819.1,4.99,0.00,26.0,24.7,00.0,34.7,27.8,09.5,0000.0,0006.60,0011.56,0006.04
2023-01-22 21:50:00,,0819.2,5.01,0.00,26.0,24.8,00.0,34.7,27.8,09.6,0000.0,0006.55,0011.40,0006.01
2023-01-22 21:51:00,,0819.1,4.99,0.00,26.0,24.8,00.0,34.7,27.9,09.6,0000.0,0006.52,0010.85,0005.98
2023-01-22 21:52:00,,0819.1,5.01,0.00,26.0,24.8,00.0,34.7,27.9,09.5,0000.0,0006.53,0010.93,0005.95
2023-01-22 21:53:00,,0819.1,4.99,0.00,26.0,24.8,00.0,34.7,27.9,09.5,0000.0,0006.55,0010.99,0005.92
2023-01-22 21:54:00,,0819.1,5.04,0.00,26.1,24.9,00.0,34.7,27.9,09.6,0000.0,0006.55,0010.99,0005.89
2023-01-22 21:55:00,,0819.1,5.00,0.00,26.1,24.9,00.0,34.7,27.9,09.7,0000.0,0006.55,0011.41,0005.87
2023-01-22 21:56:00,,0819.1,4.99,0.00,26.1,24.9,00.0,34.8,28.0,09.7,0000.0,0006.58,0011.50,0005.85
2023-01-22 21:57:00,,0819.1,5.00,0.00,26.1,24.9,00.0,34.8,28.0,09.5,0000.0,0006.56,0011.46,0005.82
2023-01-22 21:58:00,,0819.1,4.98,0.00,26.1,24.9,00.0,34.8,28.0,09.5,0000.0,0006.56,0011.40,0005.80
2023-01-22 21:59:00,,0819.1,4.97,0.00,26.1,25.0,00.0,34.8,28.0,09.5,0000.0,0006.56,0011.82,0005.79
